PCSAT (NO-44) (26931 NORAD) Tracking and Keplerian Element Data

This shows tracking and keplerian element data for the satellite.

Feedback or suggestion? Click here.




ElementValue
Catalog26931
NamePCSAT (NO-44)
Epoch Orbit99509
Epoch Day294.94150526
Epoch Year2020
RAAN178.5563
Inclination67.0512
Eccentricity0.0006736
Argument of Perigee276.1409
Mean Anonmoly83.8925
Mean Motion14.30591213
Decay Rate-1.4E-07
L11 26931U 01043C 20294.94150526 -.00000014 00000-0 26329-4 0 9990
L22 26931 67.0512 178.5563 0006736 276.1409 83.8925 14.30591213995096

Live tracking and technical data element details for PCSAT (NO-44) (NORAD 26931). PCSAT (NO-44) can be tracked NOW for your location showing map with azimuth and elevation plus other details from your city location.

Track the satellite on the map from your city or location and see movement details for azimuth, elevation, latitude, longitude, range, height, and movement on the map or in text.







IsCatalogInMostPopularTable: catalog: 26931, numindb: 1010
Update: records affected: 1



GetName: 26931 PCSAT (NO-44)

Hit Count: updated at: Thu, 22 Oct 2020 04:12:17 GMT